| time (UTC) | temp F | wind direction | speed knots | gust knots | rain 1hr in | rain 24hr in | rain mn in | humidity % | barometer mb |
| 20260505152521 | 68 | 180 | 1.7 | 5.2 | 0.00 | 0.01 | 0.01 | 70 | 1008.5 |
| 20260505151519 | 67 | 179 | 1.7 | 4.3 | 0.00 | 0.01 | 0.01 | 71 | 1008.4 |
| 20260505150520 | 66 | 208 | 0.9 | 4.3 | 0.00 | 0.01 | 0.01 | 73 | 1008.4 |
| 20260505140520 | 64 | 193 | 2.6 | 5.2 | 0.00 | 0.01 | 0.01 | 75 | 1008.1 |
| 20260505124519 | 60 | 188 | 0.9 | 3.5 | 0.01 | 0.01 | 0.01 | 82 | 1008.3 |
| 20260505123520 | 60 | 192 | 0.9 | 2.6 | 0.01 | 0.01 | 0.01 | 83 | 1008.1 |
| 20260505122520 | 60 | 129 | 0.0 | 1.7 | 0.01 | 0.01 | 0.01 | 83 | 1007.6 |
| 20260505121519 | 60 | 184 | 0.9 | 3.5 | 0.01 | 0.01 | 0.01 | 82 | 1007.6 |
| 20260505120519 | 61 | 166 | 0.0 | 1.7 | 0.00 | 0.00 | 0.00 | 82 | 1007.5 |
| 20260505115519 | 61 | 184 | 0.9 | 3.5 | 0.00 | 0.00 | 0.00 | 81 | 1007.5 |
| 20260505114519 | 61 | 201 | 0.9 | 3.5 | 0.00 | 0.00 | 0.00 | 80 | 1007.5 |
| 20260505113520 | 61 | 316 | 0.0 | 2.6 | 0.00 | 0.00 | 0.00 | 79 | 1007.5 |
| 20260505112517 | 61 | 216 | 0.9 | 4.3 | 0.00 | 0.00 | 0.00 | 78 | 1007.7 |
| 20260505111520 | 61 | 189 | 0.0 | 1.7 | 0.00 | 0.00 | 0.00 | 78 | 1007.6 |
| 20260505110520 | 61 | 0.0 | 0.0 | 0.00 | 0.00 | 0.00 | 77 | 1007.6 | |
| 20260505101521 | 62 | 173 | 0.0 | 1.7 | 0.00 | 0.00 | 0.00 | 74 | 1007.6 |
| 20260505100518 | 63 | 182 | 0.9 | 3.5 | 0.00 | 0.00 | 0.00 | 73 | 1007.4 |
| 20260505095520 | 63 | 180 | 0.9 | 2.6 | 0.00 | 0.00 | 0.00 | 72 | 1007.4 |
| 20260505094519 | 63 | 184 | 0.9 | 3.5 | 0.00 | 0.00 | 0.00 | 71 | 1007.4 |
| 20260505093519 | 63 | 177 | 0.9 | 4.3 | 0.00 | 0.00 | 0.00 | 71 | 1007.2 |
| 20260505092520 | 63 | 187 | 0.9 | 2.6 | 0.00 | 0.00 | 0.00 | 70 | 1007.1 |
| 20260505091519 | 64 | 203 | 0.9 | 2.6 | 0.00 | 0.00 | 0.00 | 70 | 1007.2 |
| 20260505090520 | 64 | 185 | 0.9 | 5.2 | 0.00 | 0.00 | 0.00 | 69 | 1007.1 |
| 20260505085519 | 64 | 177 | 1.7 | 5.2 | 0.00 | 0.00 | 0.00 | 68 | 1007.0 |
| 20260505084517 | 64 | 177 | 1.7 | 7.0 | 0.00 | 0.00 | 0.00 | 68 | 1006.7 |
| 20260505083519 | 65 | 197 | 0.9 | 2.6 | 0.00 | 0.00 | 0.00 | 67 | 1006.5 |
| 20260505082519 | 65 | 184 | 1.7 | 4.3 | 0.00 | 0.00 | 0.00 | 67 | 1006.4 |
| 20260505081520 | 65 | 188 | 1.7 | 7.0 | 0.00 | 0.00 | 0.00 | 67 | 1006.2 |
| 20260505080517 | 66 | 198 | 1.7 | 4.3 | 0.00 | 0.00 | 0.00 | 66 | 1006.0 |
| 20260505075518 | 66 | 188 | 2.6 | 7.0 | 0.00 | 0.00 | 0.00 | 66 | 1006.0 |
| 20260505074518 | 66 | 198 | 1.7 | 7.0 | 0.00 | 0.00 | 0.00 | 66 | 1006.0 |
| 20260505073521 | 66 | 198 | 1.7 | 6.1 | 0.00 | 0.00 | 0.00 | 67 | 1006.0 |
| 20260505072522 | 66 | 186 | 1.7 | 5.2 | 0.00 | 0.00 | 0.00 | 66 | 1005.8 |
| 20260505071518 | 66 | 198 | 1.7 | 6.1 | 0.00 | 0.00 | 0.00 | 67 | 1005.8 |
| 20260505070519 | 66 | 190 | 1.7 | 5.2 | 0.00 | 0.00 | 0.00 | 67 | 1005.8 |
| 20260505065518 | 66 | 188 | 0.9 | 4.3 | 0.00 | 0.00 | 0.00 | 67 | 1005.8 |
| 20260505064518 | 66 | 188 | 0.9 | 5.2 | 0.00 | 0.00 | 0.00 | 67 | 1005.7 |
| 20260505063519 | 65 | 182 | 1.7 | 8.7 | 0.00 | 0.00 | 0.00 | 68 | 1005.6 |
| 20260505062520 | 65 | 174 | 0.9 | 3.5 | 0.00 | 0.00 | 0.00 | 68 | 1005.7 |
| 20260505061521 | 66 | 186 | 1.7 | 4.3 | 0.00 | 0.00 | 0.00 | 67 | 1005.7 |
| 20260505060520 | 66 | 169 | 0.9 | 3.5 | 0.00 | 0.00 | 0.00 | 67 | 1005.8 |
| 20260505055520 | 66 | 190 | 1.7 | 4.3 | 0.00 | 0.00 | 0.00 | 67 | 1005.9 |
| 20260505054520 | 66 | 174 | 1.7 | 4.3 | 0.00 | 0.00 | 0.00 | 67 | 1006.0 |
| 20260505053521 | 66 | 193 | 0.9 | 5.2 | 0.00 | 0.00 | 0.00 | 66 | 1006.0 |
| 20260505052520 | 66 | 152 | 0.9 | 3.5 | 0.00 | 0.00 | 0.00 | 67 | 1006.2 |
| 20260505051517 | 66 | 177 | 0.9 | 3.5 | 0.00 | 0.00 | 0.00 | 67 | 1006.2 |
| 20260505050517 | 67 | 182 | 0.9 | 3.5 | 0.00 | 0.00 | 0.00 | 67 | 1006.3 |
| 20260505041519 | 67 | 198 | 0.9 | 4.3 | 0.00 | 0.00 | 0.00 | 67 | 1006.3 |
| 20260505040521 | 66 | 197 | 1.7 | 6.1 | 0.00 | 0.00 | 0.00 | 68 | 1006.2 |
| 20260505035519 | 66 | 185 | 0.9 | 2.6 | 0.00 | 0.00 | 0.00 | 68 | 1006.2 |
| 20260505034519 | 66 | 161 | 0.0 | 1.7 | 0.00 | 0.00 | 0.00 | 69 | 1006.2 |
| 20260505033519 | 65 | 172 | 0.9 | 1.7 | 0.00 | 0.00 | 0.00 | 70 | 1006.1 |
| 20260505032519 | 65 | 189 | 0.0 | 2.6 | 0.00 | 0.00 | 0.00 | 71 | 1006.2 |
| 20260505031519 | 64 | 186 | 0.0 | 1.7 | 0.00 | 0.00 | 0.00 | 73 | 1006.2 |
| 20260505030519 | 63 | 122 | 0.0 | 1.7 | 0.00 | 0.00 | 0.00 | 75 | 1006.1 |
| 20260505025520 | 63 | 121 | 0.0 | 0.9 | 0.00 | 0.00 | 0.00 | 76 | 1006.1 |
| 20260505024523 | 63 | 135 | 0.0 | 1.7 | 0.00 | 0.00 | 0.00 | 77 | 1006.1 |
| 20260505023521 | 64 | 42 | 0.0 | 0.9 | 0.00 | 0.00 | 0.00 | 76 | 1006.1 |
| 20260505022518 | 64 | 0.0 | 0.0 | 0.00 | 0.00 | 0.00 | 75 | 1006.1 | |
| 20260505021520 | 64 | 0.0 | 0.0 | 0.00 | 0.00 | 0.00 | 76 | 1006.0 | |
| 20260505020520 | 64 | 128 | 0.0 | 2.6 | 0.00 | 0.00 | 0.00 | 75 | 1006.0 |
| 20260505015522 | 64 | 119 | 0.9 | 2.6 | 0.00 | 0.00 | 0.00 | 75 | 1005.9 |
| 20260505014518 | 65 | 125 | 0.0 | 1.7 | 0.00 | 0.00 | 0.00 | 74 | 1005.9 |
| 20260505013518 | 65 | 130 | 0.0 | 2.6 | 0.00 | 0.00 | 0.00 | 73 | 1005.7 |
| 20260505012518 | 65 | 105 | 0.0 | 1.7 | 0.00 | 0.00 | 0.00 | 73 | 1005.6 |
| 20260505011518 | 65 | 105 | 0.9 | 2.6 | 0.00 | 0.00 | 0.00 | 72 | 1005.5 |
| 20260505010518 | 66 | 95 | 0.0 | 2.6 | 0.00 | 0.00 | 0.00 | 71 | 1005.5 |
| 20260505005519 | 66 | 139 | 0.0 | 2.6 | 0.00 | 0.00 | 0.00 | 70 | 1005.5 |
| 20260505004520 | 67 | 0.0 | 0.0 | 0.00 | 0.00 | 0.00 | 68 | 1005.4 | |
| 20260505003519 | 68 | 0.0 | 0.0 | 0.00 | 0.00 | 0.00 | 66 | 1005.4 | |
| 20260505002517 | 69 | 171 | 0.0 | 1.7 | 0.00 | 0.00 | 0.00 | 64 | 1005.4 |
| 20260505001521 | 70 | 160 | 0.0 | 1.7 | 0.00 | 0.00 | 0.00 | 62 | 1005.3 |
| 20260505000519 | 70 | 173 | 0.9 | 3.5 | 0.00 | 0.00 | 0.00 | 61 | 1005.3 |
| 20260504235520 | 71 | 173 | 0.9 | 2.6 | 0.00 | 0.00 | 0.00 | 61 | 1005.3 |
| 20260504234521 | 71 | 155 | 1.7 | 3.5 | 0.00 | 0.00 | 0.00 | 60 | 1005.4 |
| 20260504233517 | 71 | 168 | 1.7 | 5.2 | 0.00 | 0.00 | 0.00 | 60 | 1005.4 |
| 20260504232521 | 71 | 193 | 1.7 | 4.3 | 0.00 | 0.00 | 0.00 | 60 | 1005.4 |
| 20260504231522 | 71 | 185 | 2.6 | 8.7 | 0.00 | 0.00 | 0.00 | 60 | 1005.6 |
| 20260504230521 | 71 | 187 | 1.7 | 3.5 | 0.00 | 0.00 | 0.00 | 60 | 1005.7 |
| 20260504225519 | 71 | 183 | 1.7 | 5.2 | 0.00 | 0.00 | 0.00 | 60 | 1005.9 |
| 20260504224519 | 70 | 169 | 0.9 | 4.3 | 0.00 | 0.00 | 0.00 | 62 | 1006.1 |
| 20260504223518 | 70 | 182 | 1.7 | 5.2 | 0.00 | 0.00 | 0.00 | 62 | 1006.1 |
| 20260504222522 | 69 | 191 | 1.7 | 6.1 | 0.00 | 0.00 | 0.00 | 63 | 1006.2 |
| 20260504221519 | 69 | 179 | 0.9 | 2.6 | 0.00 | 0.00 | 0.00 | 64 | 1006.2 |
| 20260504220519 | 70 | 182 | 0.9 | 4.3 | 0.00 | 0.00 | 0.00 | 63 | 1006.4 |
| 20260504215519 | 70 | 178 | 2.6 | 6.1 | 0.00 | 0.00 | 0.00 | 63 | 1006.4 |
| 20260504214519 | 70 | 179 | 1.7 | 7.0 | 0.00 | 0.00 | 0.00 | 62 | 1006.4 |
| 20260504213516 | 71 | 182 | 2.6 | 7.8 | 0.00 | 0.00 | 0.00 | 62 | 1006.5 |
| 20260504212451 | 71 | 199 | 1.7 | 4.3 | 0.00 | 0.00 | 0.00 | 62 | 1006.3 |
| 20260504211518 | 69 | 177 | 1.7 | 5.2 | 0.00 | 0.00 | 0.00 | 64 | 1006.0 |
| 20260504210517 | 69 | 167 | 1.7 | 4.3 | 0.00 | 0.00 | 0.00 | 63 | 1006.1 |
| 20260504205526 | 69 | 178 | 1.7 | 5.2 | 0.00 | 0.00 | 0.00 | 65 | 1006.1 |
| 20260504204522 | 70 | 189 | 1.7 | 6.1 | 0.00 | 0.00 | 0.00 | 65 | 1006.6 |
| 20260504203522 | 71 | 191 | 3.5 | 7.8 | 0.00 | 0.00 | 0.00 | 62 | 1006.8 |
| 20260504202518 | 71 | 194 | 2.6 | 7.0 | 0.00 | 0.00 | 0.00 | 62 | 1007.1 |
| 20260504201519 | 71 | 185 | 2.6 | 10.4 | 0.00 | 0.00 | 0.00 | 61 | 1007.3 |
| 20260504200518 | 72 | 191 | 4.3 | 13.9 | 0.00 | 0.00 | 0.00 | 59 | 1007.2 |
| 20260504195518 | 74 | 184 | 4.3 | 8.7 | 0.00 | 0.00 | 0.00 | 58 | 1006.9 |
| 20260504194518 | 73 | 204 | 2.6 | 6.1 | 0.00 | 0.00 | 0.00 | 58 | 1007.0 |
| 20260504193521 | 73 | 200 | 2.6 | 5.2 | 0.00 | 0.00 | 0.00 | 58 | 1007.0 |
| 20260504192519 | 74 | 171 | 3.5 | 11.3 | 0.00 | 0.00 | 0.00 | 57 | 1006.7 |
| 20260504191519 | 74 | 172 | 2.6 | 8.7 | 0.00 | 0.00 | 0.00 | 58 | 1006.7 |
| 20260504190519 | 73 | 180 | 1.7 | 6.1 | 0.00 | 0.00 | 0.00 | 59 | 1006.7 |
| 20260504185519 | 72 | 191 | 2.6 | 7.0 | 0.00 | 0.00 | 0.00 | 58 | 1006.8 |
| 20260504184517 | 72 | 166 | 3.5 | 7.8 | 0.00 | 0.00 | 0.00 | 59 | 1006.9 |
| 20260504183517 | 71 | 177 | 1.7 | 4.3 | 0.00 | 0.00 | 0.00 | 60 | 1007.1 |
| 20260504182520 | 71 | 188 | 3.5 | 9.6 | 0.00 | 0.00 | 0.00 | 59 | 1007.1 |
| 20260504181521 | 72 | 174 | 2.6 | 7.8 | 0.00 | 0.00 | 0.00 | 60 | 1007.1 |
| 20260504180520 | 72 | 186 | 2.6 | 8.7 | 0.00 | 0.00 | 0.00 | 59 | 1007.1 |
| 20260504175517 | 72 | 170 | 3.5 | 6.1 | 0.00 | 0.00 | 0.00 | 58 | 1007.2 |
| 20260504174517 | 72 | 189 | 2.6 | 7.0 | 0.00 | 0.00 | 0.00 | 60 | 1007.3 |
| 20260504173517 | 71 | 175 | 3.5 | 7.8 | 0.00 | 0.00 | 0.00 | 60 | 1007.4 |
| 20260504172517 | 71 | 170 | 2.6 | 7.0 | 0.00 | 0.00 | 0.00 | 61 | 1007.4 |
| 20260504171518 | 70 | 163 | 2.6 | 6.1 | 0.00 | 0.00 | 0.00 | 62 | 1007.5 |
| 20260504170518 | 69 | 170 | 2.6 | 7.0 | 0.00 | 0.00 | 0.00 | 63 | 1007.7 |